"read_dt","SO2 (ppb)","flags","PMT voltage (V)","lamp voltage (V)","lamp intensity (Hz)","internal temp (C)","react chamber temp (C)","sample flow (l/min)","pres (mmHg)","SO2 bkg (ppb)","SO2 coefficient"
2017-04-14 00:00:00,1667E-3,5C000400,-0724,0838,12069,031.5,045.6,0.214,749.1,01.17,0.508
2017-04-14 00:01:00,1810E-3,5C000400,-0724,0838,12005,031.5,045.6,0.214,749.1,01.17,0.508
2017-04-14 00:02:00,1633E-3,5C000400,-0724,0838,12133,031.5,045.6,0.214,749.1,01.17,0.508
2017-04-14 00:03:00,1677E-3,5C000400,-0724,0838,11956,031.5,045.6,0.214,749.1,01.17,0.508
2017-04-14 00:04:00,1622E-3,5C000400,-0724,0838,12015,031.5,045.6,0.214,749.1,01.17,0.508
2017-04-14 00:05:00,1694E-3,5C000400,-0724,0839,12004,031.5,045.6,0.214,749.1,01.17,0.508
2017-04-14 00:06:00,1652E-3,5C000400,-0724,0838,12049,031.5,045.5,0.214,749.1,01.17,0.508
2017-04-14 00:07:00,1701E-3,5C000400,-0724,0838,12074,031.5,045.6,0.214,749.1,01.17,0.508
2017-04-14 00:08:00,1726E-3,5C000400,-0724,0838,12161,031.5,045.6,0.214,749.1,01.17,0.508
2017-04-14 00:09:00,1578E-3,5C000400,-0724,0838,12059,031.5,045.5,0.214,749.1,01.17,0.508
2017-04-14 00:10:00,1664E-3,5C000400,-0724,0838,12133,031.5,045.5,0.213,749.1,01.17,0.508
2017-04-14 00:11:00,1740E-3,5C000400,-0724,0839,12116,031.5,045.5,0.214,749.1,01.17,0.508
2017-04-14 00:12:00,1756E-3,5C000400,-0724,0838,12045,031.6,045.6,0.214,749.1,01.17,0.508
2017-04-14 00:13:00,1669E-3,5C000400,-0724,0838,12019,031.5,045.6,0.214,749.1,01.17,0.508
2017-04-14 00:14:00,1685E-3,5C000400,-0724,0838,12058,031.5,045.6,0.214,749.1,01.17,0.508
2017-04-14 00:15:00,1581E-3,5C000400,-0724,0838,12206,031.6,045.6,0.214,749.1,01.17,0.508
2017-04-14 00:16:00,1651E-3,5C000400,-0724,0838,11792,031.6,045.5,0.213,749.1,01.17,0.508
2017-04-14 00:17:00,1708E-3,5C000400,-0724,0838,12007,031.6,045.6,0.214,749.1,01.17,0.508
2017-04-14 00:18:00,1659E-3,5C000400,-0724,0838,12119,031.6,045.6,0.214,749.1,01.17,0.508
2017-04-14 00:19:00,1621E-3,5C000400,-0724,0838,12014,031.6,045.6,0.214,749.1,01.17,0.508
2017-04-14 00:20:00,1695E-3,5C000400,-0724,0838,12113,031.6,045.6,0.214,749.1,01.17,0.508
2017-04-14 00:21:00,1681E-3,5C000400,-0724,0838,12094,031.6,045.6,0.214,749.0,01.17,0.508
2017-04-14 00:22:00,1635E-3,5C000400,-0724,0838,12068,031.6,045.6,0.213,749.0,01.17,0.508
2017-04-14 00:23:00,1644E-3,5C000400,-0724,0838,11985,031.6,045.6,0.214,749.0,01.17,0.508
2017-04-14 00:24:00,1704E-3,5C000400,-0724,0839,12121,031.6,045.6,0.214,749.0,01.17,0.508
2017-04-14 00:25:00,1616E-3,5C000400,-0724,0838,12006,031.6,045.6,0.214,749.0,01.17,0.508
2017-04-14 00:26:00,1694E-3,5C000400,-0724,0838,12031,031.6,045.6,0.214,749.1,01.17,0.508
2017-04-14 00:27:00,1721E-3,5C000400,-0724,0838,12144,031.6,045.6,0.214,749.1,01.17,0.508
2017-04-14 00:28:00,1675E-3,5C000400,-0724,0838,11989,031.6,045.6,0.213,749.0,01.17,0.508
2017-04-14 00:29:00,1723E-3,5C000400,-0724,0838,12072,031.6,045.6,0.213,749.0,01.17,0.508
2017-04-14 00:30:00,1650E-3,5C000400,-0724,0839,12184,031.6,045.6,0.214,749.0,01.17,0.508
2017-04-14 00:31:00,1725E-3,5C000400,-0724,0838,12155,031.6,045.6,0.214,749.1,01.17,0.508
2017-04-14 00:32:00,1657E-3,5C000400,-0724,0838,12191,031.6,045.6,0.214,749.1,01.17,0.508
2017-04-14 00:33:00,1706E-3,5C000400,-0724,0839,12033,031.6,045.6,0.214,749.1,01.17,0.508
2017-04-14 00:34:00,1614E-3,5C000400,-0724,0838,12054,031.6,045.6,0.213,749.1,01.17,0.508
2017-04-14 00:35:00,1756E-3,5C000400,-0724,0838,12179,031.6,045.6,0.213,749.1,01.17,0.508
2017-04-14 00:36:00,1724E-3,5C000400,-0724,0838,12033,031.6,045.6,0.214,749.1,01.17,0.508
2017-04-14 00:37:00,1738E-3,5C000400,-0724,0838,12004,031.7,045.6,0.214,749.0,01.17,0.508
2017-04-14 00:38:00,1728E-3,5C000400,-0724,0838,11973,031.7,045.6,0.214,749.0,01.17,0.508
2017-04-14 00:39:00,1565E-3,5C000400,-0724,0838,12100,031.7,045.6,0.214,749.0,01.17,0.508
2017-04-14 00:40:00,1617E-3,5C000400,-0724,0839,12111,031.7,045.6,0.213,748.9,01.17,0.508
2017-04-14 00:41:00,1741E-3,5C000400,-0724,0838,12061,031.7,045.6,0.213,748.9,01.17,0.508
2017-04-14 00:42:00,1718E-3,5C000400,-0724,0839,12062,031.7,045.6,0.213,748.9,01.17,0.508
2017-04-14 00:43:00,1771E-3,5C000400,-0724,0837,11967,031.7,045.6,0.214,748.9,01.17,0.508
2017-04-14 00:44:00,1681E-3,5C000400,-0724,0838,12014,031.7,045.6,0.214,749.0,01.17,0.508
2017-04-14 00:45:00,1655E-3,5C000400,-0724,0839,12156,031.7,045.6,0.214,748.9,01.17,0.508
2017-04-14 00:46:00,1546E-3,5C000400,-0724,0839,12144,031.7,045.6,0.214,748.9,01.17,0.508
2017-04-14 00:47:00,1794E-3,5C000400,-0724,0838,11965,031.7,045.6,0.214,748.9,01.17,0.508
2017-04-14 00:48:00,1622E-3,5C000400,-0724,0838,12139,031.7,045.6,0.213,748.9,01.17,0.508
2017-04-14 00:49:00,1771E-3,5C000400,-0724,0838,12010,031.7,045.6,0.213,748.9,01.17,0.508
2017-04-14 00:50:00,1711E-3,5C000400,-0724,0838,12050,031.7,045.6,0.213,748.9,01.17,0.508
2017-04-14 00:51:00,1702E-3,5C000400,-0724,0838,12107,031.8,045.6,0.213,748.9,01.17,0.508
2017-04-14 00:52:00,1753E-3,5C000400,-0724,0838,12063,031.8,045.6,0.213,748.9,01.17,0.508
2017-04-14 00:53:00,1717E-3,5C000400,-0724,0838,12066,031.7,045.6,0.214,748.8,01.17,0.508
2017-04-14 00:54:00,1639E-3,5C000400,-0724,0838,12058,031.7,045.6,0.214,748.8,01.17,0.508
2017-04-14 00:55:00,1738E-3,5C000400,-0724,0838,12094,031.8,045.6,0.213,748.8,01.17,0.508
2017-04-14 00:56:00,1592E-3,5C000400,-0724,0838,12153,031.8,045.6,0.213,748.8,01.17,0.508
2017-04-14 00:57:00,1582E-3,5C000400,-0724,0838,11967,031.8,045.6,0.213,748.8,01.17,0.508
2017-04-14 00:58:00,1782E-3,5C000400,-0724,0838,12055,031.8,045.6,0.213,748.8,01.17,0.508
2017-04-14 00:59:00,1730E-3,5C000400,-0724,0838,12009,031.8,045.6,0.213,748.8,01.17,0.508
2017-04-14 01:00:00,1707E-3,5C000400,-0724,0838,12060,031.8,045.6,0.213,748.8,01.17,0.508
2017-04-14 01:01:00,1719E-3,5C000400,-0724,0838,12019,031.8,045.6,0.213,748.8,01.17,0.508
2017-04-14 01:02:00,1720E-3,5C000400,-0724,0838,12003,031.8,045.6,0.213,748.8,01.17,0.508
2017-04-14 01:03:00,1664E-3,5C000400,-0724,0838,12061,031.8,045.6,0.213,748.8,01.17,0.508
2017-04-14 01:04:00,1696E-3,5C000400,-0724,0838,12095,031.8,045.6,0.213,748.8,01.17,0.508
2017-04-14 01:05:00,1696E-3,5C000400,-0724,0838,11999,031.8,045.6,0.213,748.8,01.17,0.508
2017-04-14 01:06:00,1586E-3,5C000400,-0724,0838,11948,031.8,045.6,0.213,748.8,01.17,0.508
2017-04-14 01:07:00,1695E-3,5C000400,-0724,0837,12088,031.8,045.6,0.213,748.8,01.17,0.508
2017-04-14 01:08:00,1600E-3,5C000400,-0724,0838,12091,031.9,045.6,0.213,748.8,01.17,0.508
2017-04-14 01:09:00,1779E-3,5C000400,-0724,0839,12073,031.8,045.6,0.213,748.8,01.17,0.508
2017-04-14 01:10:00,1725E-3,5C000400,-0724,0838,11984,031.9,045.6,0.213,748.7,01.17,0.508
2017-04-14 01:11:00,1881E-3,5C000400,-0724,0838,11956,031.9,045.6,0.213,748.7,01.17,0.508
2017-04-14 01:12:00,1717E-3,5C000400,-0724,0839,12072,031.9,045.6,0.213,748.7,01.17,0.508
2017-04-14 01:13:00,1696E-3,5C000400,-0724,0837,12002,031.9,045.6,0.213,748.7,01.17,0.508
2017-04-14 01:14:00,1701E-3,5C000400,-0724,0839,12100,031.9,045.6,0.213,748.7,01.17,0.508
2017-04-14 01:15:00,1666E-3,5C000400,-0724,0837,12098,031.9,045.6,0.213,748.7,01.17,0.508
2017-04-14 01:16:00,1763E-3,5C000400,-0724,0838,12047,031.9,045.6,0.213,748.8,01.17,0.508
2017-04-14 01:17:00,1639E-3,5C000400,-0724,0839,12091,031.9,045.6,0.213,748.7,01.17,0.508
2017-04-14 01:18:00,1505E-3,5C000400,-0724,0838,12071,031.9,045.6,0.213,748.7,01.17,0.508
2017-04-14 01:19:00,1699E-3,5C000400,-0724,0838,11975,031.9,045.6,0.213,748.7,01.17,0.508
2017-04-14 01:20:00,1598E-3,5C000400,-0724,0838,12037,031.9,045.6,0.213,748.8,01.17,0.508
2017-04-14 01:21:00,1705E-3,5C000400,-0724,0838,12032,031.9,045.6,0.213,748.7,01.17,0.508
2017-04-14 01:22:00,1640E-3,5C000400,-0724,0839,12122,032.0,045.6,0.213,748.7,01.17,0.508
2017-04-14 01:23:00,1664E-3,5C000400,-0724,0838,12094,032.0,045.6,0.213,748.7,01.17,0.508
2017-04-14 01:24:00,1737E-3,5C000400,-0724,0838,12093,032.0,045.6,0.213,748.7,01.17,0.508
2017-04-14 01:25:00,1695E-3,5C000400,-0724,0838,11921,032.0,045.6,0.213,748.7,01.17,0.508
2017-04-14 01:26:00,1641E-3,5C000400,-0724,0838,12039,032.0,045.6,0.213,748.6,01.17,0.508
2017-04-14 01:27:00,1737E-3,5C000400,-0724,0838,12070,032.0,045.6,0.212,748.6,01.17,0.508
2017-04-14 01:28:00,1887E-3,5C000400,-0724,0838,12057,032.0,045.6,0.212,748.6,01.17,0.508
2017-04-14 01:29:00,1755E-3,5C000400,-0724,0839,12153,032.0,045.6,0.212,748.6,01.17,0.508
2017-04-14 01:30:00,1722E-3,5C000400,-0724,0838,12030,032.0,045.6,0.213,748.6,01.17,0.508
2017-04-14 01:31:00,1630E-3,5C000400,-0724,0838,12190,032.0,045.6,0.213,748.6,01.17,0.508
2017-04-14 01:32:00,1637E-3,5C000400,-0724,0838,12049,032.0,045.6,0.213,748.6,01.17,0.508
2017-04-14 01:33:00,1662E-3,5C000400,-0724,0838,12129,032.1,045.6,0.213,748.5,01.17,0.508
2017-04-14 01:34:00,1659E-3,5C000400,-0724,0837,12120,032.1,045.6,0.213,748.6,01.17,0.508
2017-04-14 01:35:00,1745E-3,5C000400,-0724,0839,12039,032.1,045.6,0.213,748.6,01.17,0.508
2017-04-14 01:36:00,1679E-3,5C000400,-0724,0838,12045,032.1,045.6,0.213,748.6,01.17,0.508
2017-04-14 01:37:00,1709E-3,5C000400,-0724,0839,11981,032.1,045.6,0.213,748.6,01.17,0.508
2017-04-14 01:38:00,1593E-3,5C000400,-0724,0838,12081,032.1,045.6,0.212,748.6,01.17,0.508
2017-04-14 01:39:00,1587E-3,5C000400,-0724,0837,11964,032.1,045.6,0.213,748.6,01.17,0.508
2017-04-14 01:40:00,1706E-3,5C000400,-0724,0838,11975,032.1,045.6,0.212,748.6,01.17,0.508
2017-04-14 01:41:00,1732E-3,5C000400,-0724,0839,12145,032.1,045.6,0.212,748.7,01.17,0.508
2017-04-14 01:42:00,1702E-3,5C000400,-0724,0839,12110,032.1,045.6,0.212,748.7,01.17,0.508
2017-04-14 01:43:00,1610E-3,5C000400,-0724,0839,12093,032.1,045.6,0.212,748.6,01.17,0.508
2017-04-14 01:44:00,1772E-3,5C000400,-0724,0838,12109,032.2,045.6,0.213,748.7,01.17,0.508
2017-04-14 01:45:00,1588E-3,5C000400,-0724,0838,11935,032.2,045.6,0.213,748.7,01.17,0.508
2017-04-14 01:46:00,1674E-3,5C000400,-0724,0838,12064,032.2,045.6,0.213,748.7,01.17,0.508
2017-04-14 01:47:00,1690E-3,5C000400,-0724,0838,12064,032.2,045.6,0.213,748.7,01.17,0.508
2017-04-14 01:48:00,1672E-3,5C000400,-0724,0838,12092,032.2,045.6,0.212,748.7,01.17,0.508
2017-04-14 01:49:00,1600E-3,5C000400,-0724,0838,12115,032.2,045.6,0.212,748.7,01.17,0.508
2017-04-14 01:50:00,1740E-3,5C000400,-0724,0837,12070,032.2,045.6,0.212,748.7,01.17,0.508
2017-04-14 01:51:00,1578E-3,5C000400,-0724,0838,12067,032.2,045.6,0.212,748.8,01.17,0.508
2017-04-14 01:52:00,1726E-3,5C000400,-0724,0838,11987,032.2,045.6,0.213,748.8,01.17,0.508
2017-04-14 01:53:00,1638E-3,5C000400,-0724,0839,12069,032.2,045.6,0.213,748.8,01.17,0.508
2017-04-14 01:54:00,1611E-3,5C000400,-0724,0838,12150,032.2,045.6,0.213,748.7,01.17,0.508
2017-04-14 01:55:00,1640E-3,5C000400,-0724,0839,12120,032.3,045.6,0.212,748.7,01.17,0.508
2017-04-14 01:56:00,1660E-3,5C000400,-0724,0838,12071,032.3,045.6,0.212,748.7,01.17,0.508
2017-04-14 01:57:00,1600E-3,5C000400,-0724,0839,12115,032.3,045.6,0.212,748.6,01.17,0.508
2017-04-14 01:58:00,1742E-3,5C000400,-0724,0838,12128,032.3,045.6,0.212,748.6,01.17,0.508
2017-04-14 01:59:00,1628E-3,5C000400,-0724,0839,11894,032.3,045.6,0.212,748.6,01.17,0.508
2017-04-14 02:00:00,1522E-3,5C000400,-0724,0838,12045,032.3,045.6,0.212,748.6,01.17,0.508
2017-04-14 02:01:00,1749E-3,5C000400,-0724,0838,11946,032.3,045.6,0.212,748.5,01.17,0.508
2017-04-14 02:02:00,1676E-3,5C000400,-0724,0839,12035,032.3,045.6,0.212,748.4,01.17,0.508
2017-04-14 02:03:00,1679E-3,5C000400,-0724,0838,12104,032.3,045.6,0.212,748.4,01.17,0.508
2017-04-14 02:04:00,1645E-3,5C000400,-0724,0838,12047,032.3,045.6,0.212,748.5,01.17,0.508
2017-04-14 02:05:00,1771E-3,5C000400,-0724,0838,11836,032.4,045.6,0.212,748.5,01.17,0.508
2017-04-14 02:06:00,1678E-3,5C000400,-0724,0838,12103,032.4,045.6,0.212,748.6,01.17,0.508
2017-04-14 02:07:00,1748E-3,5C000400,-0724,0839,12093,032.4,045.6,0.212,748.6,01.17,0.508
2017-04-14 02:08:00,1687E-3,5C000400,-0724,0838,12081,032.4,045.6,0.212,748.6,01.17,0.508
2017-04-14 02:09:00,1754E-3,5C000400,-0724,0838,12151,032.4,045.6,0.212,748.6,01.17,0.508
2017-04-14 02:10:00,1735E-3,5C000400,-0724,0838,12091,032.4,045.6,0.212,748.6,01.17,0.508
2017-04-14 02:11:00,1677E-3,5C000400,-0724,0838,12000,032.4,045.6,0.212,748.7,01.17,0.508
2017-04-14 02:12:00,1608E-3,5C000400,-0724,0839,12063,032.4,045.6,0.212,748.7,01.17,0.508
2017-04-14 02:13:00,1724E-3,5C000400,-0724,0839,12106,032.4,045.6,0.212,748.7,01.17,0.508
2017-04-14 02:14:00,1643E-3,5C000400,-0724,0838,12087,032.4,045.6,0.212,748.7,01.17,0.508
2017-04-14 02:15:00,1698E-3,5C000400,-0724,0839,11988,032.4,045.6,0.212,748.7,01.17,0.508
2017-04-14 02:16:00,1770E-3,5C000400,-0724,0838,11934,032.5,045.6,0.212,748.7,01.17,0.508
2017-04-14 02:17:00,1639E-3,5C000400,-0724,0839,12111,032.5,045.6,0.212,748.7,01.17,0.508
2017-04-14 02:18:00,1674E-3,5C000400,-0724,0838,12031,032.5,045.6,0.212,748.6,01.17,0.508
2017-04-14 02:19:00,1666E-3,5C000400,-0724,0838,12027,032.5,045.6,0.212,748.6,01.17,0.508
2017-04-14 02:20:00,1768E-3,5C000400,-0724,0839,11941,032.5,045.6,0.212,748.7,01.17,0.508
2017-04-14 02:21:00,1703E-3,5C000400,-0724,0839,11982,032.5,045.6,0.211,748.7,01.17,0.508
2017-04-14 02:22:00,1638E-3,5C000400,-0724,0839,12080,032.5,045.6,0.211,748.7,01.17,0.508
2017-04-14 02:23:00,1710E-3,5C000400,-0724,0838,12172,032.5,045.6,0.211,748.7,01.17,0.508
2017-04-14 02:24:00,1601E-3,5C000400,-0724,0839,12013,032.5,045.6,0.211,748.7,01.17,0.508
2017-04-14 02:25:00,1582E-3,5C000400,-0724,0839,11993,032.6,045.6,0.211,748.7,01.17,0.508
2017-04-14 02:26:00,1663E-3,5C000400,-0724,0839,12024,032.5,045.6,0.211,748.7,01.17,0.508
2017-04-14 02:27:00,1598E-3,5C000400,-0724,0839,12075,032.6,045.6,0.212,748.6,01.17,0.508
2017-04-14 02:28:00,1755E-3,5C000400,-0724,0839,12090,032.6,045.6,0.212,748.6,01.17,0.508
2017-04-14 02:29:00,1743E-3,5C000400,-0724,0838,12174,032.6,045.6,0.211,748.6,01.17,0.508
2017-04-14 02:30:00,1681E-3,5C000400,-0724,0838,12132,032.5,045.6,0.211,748.6,01.17,0.508
2017-04-14 02:31:00,1574E-3,5C000400,-0724,0839,12047,032.5,045.6,0.212,748.6,01.17,0.508
2017-04-14 02:32:00,1752E-3,5C000400,-0724,0839,12029,032.4,045.6,0.212,748.6,01.17,0.508
2017-04-14 02:33:00,1843E-3,5C000400,-0724,0838,12051,032.2,045.6,0.212,748.6,01.17,0.508
2017-04-14 02:34:00,1700E-3,5C000400,-0724,0838,11924,032.0,045.6,0.212,748.6,01.17,0.508
2017-04-14 02:35:00,1635E-3,5C000400,-0724,0838,11916,031.8,045.6,0.212,748.6,01.17,0.508
2017-04-14 02:36:00,1689E-3,5C000400,-0724,0838,12117,031.6,045.6,0.212,748.6,01.17,0.508
2017-04-14 02:37:00,1727E-3,5C000400,-0724,0837,12059,031.4,045.6,0.212,748.6,01.17,0.508
2017-04-14 02:38:00,1708E-3,5C000400,-0724,0837,12126,031.1,045.6,0.212,748.6,01.17,0.508
2017-04-14 02:39:00,1695E-3,5C000400,-0724,0837,12154,030.9,045.6,0.213,748.6,01.17,0.508
2017-04-14 02:40:00,1680E-3,5C000400,-0724,0837,12116,030.8,045.6,0.213,748.6,01.17,0.508
2017-04-14 02:41:00,1693E-3,5C000400,-0724,0837,12060,030.7,045.6,0.213,748.6,01.17,0.508
2017-04-14 02:42:00,1624E-3,5C000400,-0724,0837,12156,030.6,045.6,0.214,748.6,01.17,0.508
2017-04-14 02:43:00,1753E-3,5C000400,-0724,0837,12059,030.5,045.6,0.214,748.5,01.17,0.508
2017-04-14 02:44:00,1672E-3,5C000400,-0724,0838,12081,030.5,045.5,0.214,748.6,01.17,0.508
2017-04-14 02:45:00,1562E-3,5C000400,-0724,0838,11942,030.6,045.6,0.215,748.5,01.17,0.508
2017-04-14 02:46:00,1631E-3,5C000400,-0724,0837,12033,030.6,045.5,0.215,748.5,01.17,0.508
2017-04-14 02:47:00,1798E-3,5C000400,-0724,0838,12139,030.7,045.6,0.215,748.5,01.17,0.508
2017-04-14 02:48:00,1749E-3,5C000400,-0724,0838,12170,030.8,045.6,0.215,748.6,01.17,0.508
2017-04-14 02:49:00,1659E-3,5C000400,-0724,0838,12001,030.8,045.6,0.215,748.5,01.17,0.508
2017-04-14 02:50:00,1730E-3,5C000400,-0724,0838,11975,030.9,045.5,0.215,748.5,01.17,0.508
2017-04-14 02:51:00,1629E-3,5C000400,-0724,0838,11954,030.9,045.5,0.215,748.5,01.17,0.508
2017-04-14 02:52:00,1624E-3,5C000400,-0724,0837,12134,031.0,045.6,0.215,748.5,01.17,0.508
2017-04-14 02:53:00,1703E-3,5C000400,-0724,0838,11982,031.0,045.5,0.215,748.4,01.17,0.508
2017-04-14 02:54:00,1696E-3,5C000400,-0724,0838,11865,031.1,045.5,0.215,748.3,01.17,0.508
2017-04-14 02:55:00,1761E-3,5C000400,-0724,0838,12021,031.1,045.6,0.215,748.6,01.17,0.508
2017-04-14 02:56:00,1747E-3,5C000400,-0724,0838,12027,031.2,045.6,0.215,748.6,01.17,0.508
2017-04-14 02:57:00,1606E-3,5C000400,-0724,0838,12131,031.3,045.6,0.215,748.6,01.17,0.508
2017-04-14 02:58:00,1824E-3,5C000400,-0724,0838,11810,031.3,045.6,0.215,748.6,01.17,0.508
2017-04-14 02:59:00,1678E-3,5C000400,-0724,0838,11867,031.4,045.6,0.215,748.6,01.17,0.508
2017-04-14 03:00:00,1787E-3,5C000400,-0724,0838,12030,031.4,045.6,0.215,748.6,01.17,0.508
2017-04-14 03:01:00,1682E-3,5C000400,-0724,0838,11994,031.4,045.6,0.215,748.7,01.17,0.508
2017-04-14 03:02:00,1813E-3,5C000400,-0724,0838,12038,031.5,045.6,0.214,748.7,01.17,0.508
2017-04-14 03:03:00,1743E-3,5C000400,-0724,0838,12124,031.5,045.6,0.214,748.7,01.17,0.508
2017-04-14 03:04:00,1876E-3,5C000400,-0724,0838,12033,031.6,045.6,0.214,748.8,01.17,0.508
2017-04-14 03:05:00,1755E-3,5C000400,-0724,0838,11991,031.6,045.6,0.214,748.7,01.17,0.508
2017-04-14 03:06:00,1813E-3,5C000400,-0724,0838,12028,031.7,045.6,0.214,748.7,01.17,0.508
2017-04-14 03:07:00,1754E-3,5C000400,-0724,0838,12134,031.7,045.6,0.214,748.7,01.17,0.508
2017-04-14 03:08:00,1802E-3,5C000400,-0724,0838,12122,031.7,045.6,0.214,748.7,01.17,0.508
2017-04-14 03:09:00,1700E-3,5C000400,-0724,0838,12097,031.8,045.6,0.214,748.7,01.17,0.508
2017-04-14 03:10:00,1695E-3,5C000400,-0724,0838,12103,031.8,045.6,0.214,748.7,01.17,0.508
2017-04-14 03:11:00,1742E-3,5C000400,-0724,0838,12087,031.9,045.6,0.214,748.7,01.17,0.508
2017-04-14 03:12:00,1664E-3,5C000400,-0724,0838,12061,031.9,045.6,0.214,748.7,01.17,0.508
2017-04-14 03:13:00,1731E-3,5C000400,-0724,0838,11914,031.9,045.6,0.213,748.6,01.17,0.508
2017-04-14 03:14:00,1642E-3,5C000400,-0724,0838,11912,032.0,045.6,0.213,748.7,01.17,0.508
2017-04-14 03:15:00,1611E-3,5C000400,-0724,0838,11803,032.0,045.6,0.213,748.7,01.17,0.508
2017-04-14 03:16:00,1600E-3,5C000400,-0724,0838,12117,032.0,045.6,0.213,748.7,01.17,0.508
2017-04-14 03:17:00,1774E-3,5C000400,-0724,0839,12102,032.0,045.6,0.213,748.7,01.17,0.508
2017-04-14 03:18:00,1675E-3,5C000400,-0724,0838,11950,032.1,045.6,0.213,748.6,01.17,0.508
2017-04-14 03:19:00,1815E-3,5C000400,-0724,0839,11985,032.1,045.6,0.213,748.6,01.17,0.508
2017-04-14 03:20:00,1636E-3,5C000400,-0724,0838,12077,032.1,045.6,0.213,748.6,01.17,0.508
2017-04-14 03:21:00,1715E-3,5C000400,-0724,0838,12112,032.2,045.6,0.213,748.6,01.17,0.508
2017-04-14 03:22:00,1544E-3,5C000400,-0724,0839,12128,032.2,045.6,0.213,748.5,01.17,0.508
2017-04-14 03:23:00,1594E-3,5C000400,-0724,0838,12119,032.2,045.6,0.213,748.6,01.17,0.508
2017-04-14 03:24:00,1725E-3,5C000400,-0724,0838,11909,032.3,045.6,0.213,748.6,01.17,0.508
2017-04-14 03:25:00,1715E-3,5C000400,-0724,0838,12032,032.2,045.6,0.213,748.6,01.17,0.508
2017-04-14 03:26:00,1679E-3,5C000400,-0724,0838,11956,032.2,045.6,0.213,748.6,01.17,0.508
2017-04-14 03:27:00,1613E-3,5C000400,-0724,0838,12121,032.2,045.6,0.213,748.6,01.17,0.508
2017-04-14 03:28:00,1669E-3,5C000400,-0724,0838,12057,032.1,045.6,0.213,748.6,01.17,0.508
2017-04-14 03:29:00,1588E-3,5C000400,-0724,0838,12112,031.9,045.6,0.213,748.7,01.17,0.508
2017-04-14 03:30:00,1589E-3,5C000400,-0724,0838,12072,031.7,045.6,0.212,748.7,01.17,0.508
2017-04-14 03:31:00,1632E-3,5C000400,-0724,0838,12208,031.5,045.6,0.213,748.7,01.17,0.508
2017-04-14 03:32:00,1622E-3,5C000400,-0724,0838,12120,031.3,045.6,0.213,748.7,01.17,0.508
2017-04-14 03:33:00,1638E-3,5C000400,-0724,0837,12025,031.0,045.5,0.213,748.7,01.17,0.508
2017-04-14 03:34:00,1661E-3,5C000400,-0724,0838,12105,030.9,045.5,0.213,748.7,01.17,0.508
2017-04-14 03:35:00,1703E-3,5C000400,-0724,0837,12115,030.6,045.5,0.213,748.7,01.17,0.508
2017-04-14 03:36:00,1834E-3,5C000400,-0724,0838,11990,030.5,045.5,0.214,748.7,01.17,0.508
2017-04-14 03:37:00,1688E-3,5C000400,-0724,0837,11992,030.4,045.5,0.214,748.7,01.17,0.508
2017-04-14 03:38:00,1810E-3,5C000400,-0724,0838,12072,030.3,045.5,0.214,748.7,01.17,0.508
2017-04-14 03:39:00,1830E-3,5C000400,-0724,0837,12078,030.2,045.5,0.215,748.7,01.17,0.508
2017-04-14 03:40:00,1618E-3,5C000400,-0724,0837,11987,030.1,045.5,0.215,748.6,01.17,0.508
2017-04-14 03:41:00,1576E-3,5C000400,-0724,0836,12003,030.1,045.5,0.215,748.7,01.17,0.508
2017-04-14 03:42:00,1615E-3,5C000400,-0724,0837,12147,030.1,045.5,0.215,748.6,01.17,0.508
2017-04-14 03:43:00,1577E-3,5C000400,-0724,0838,12112,030.2,045.5,0.215,748.6,01.17,0.508
2017-04-14 03:44:00,1642E-3,5C000400,-0724,0838,12084,030.2,045.5,0.216,748.5,01.17,0.508
2017-04-14 03:45:00,1806E-3,5C000400,-0724,0838,12081,030.3,045.5,0.216,748.5,01.17,0.508
2017-04-14 03:46:00,1561E-3,5C000400,-0724,0837,12070,030.4,045.5,0.216,748.5,01.17,0.508
2017-04-14 03:47:00,1612E-3,5C000400,-0724,0838,12043,030.5,045.6,0.216,748.5,01.17,0.508
2017-04-14 03:48:00,1694E-3,5C000400,-0724,0837,11899,030.5,045.5,0.216,748.5,01.17,0.508
2017-04-14 03:49:00,1683E-3,5C000400,-0724,0837,12019,030.6,045.5,0.216,748.5,01.17,0.508
2017-04-14 03:50:00,1667E-3,5C000400,-0724,0838,11972,030.7,045.6,0.216,748.6,01.17,0.508
2017-04-14 03:51:00,1658E-3,5C000400,-0724,0838,12096,030.8,045.6,0.216,748.6,01.17,0.508
2017-04-14 03:52:00,1584E-3,5C000400,-0724,0838,12112,030.8,045.6,0.216,748.6,01.17,0.508
2017-04-14 03:53:00,1649E-3,5C000400,-0724,0838,12062,030.9,045.5,0.216,748.6,01.17,0.508
2017-04-14 03:54:00,1641E-3,5C000400,-0724,0839,12188,031.0,045.6,0.216,748.6,01.17,0.508
2017-04-14 03:55:00,1772E-3,5C000400,-0724,0839,12082,031.0,045.5,0.216,748.6,01.17,0.508
2017-04-14 03:56:00,1700E-3,5C000400,-0724,0838,12137,031.1,045.6,0.215,748.6,01.17,0.508
2017-04-14 03:57:00,1793E-3,5C000400,-0724,0839,12245,031.1,045.6,0.215,748.6,01.17,0.508
2017-04-14 03:58:00,1560E-3,5C000400,-0724,0838,11809,031.2,045.6,0.215,748.6,01.17,0.508
2017-04-14 03:59:00,1773E-3,5C000400,-0724,0838,12092,031.3,045.6,0.215,748.6,01.17,0.508
2017-04-14 04:00:00,1722E-3,5C000400,-0724,0838,12104,031.3,045.6,0.215,748.6,01.17,0.508
2017-04-14 04:01:00,1699E-3,5C000400,-0724,0838,12161,031.4,045.6,0.215,748.6,01.17,0.508
2017-04-14 04:02:00,1606E-3,5C000400,-0724,0838,11957,031.4,045.6,0.215,748.6,01.17,0.508
2017-04-14 04:03:00,1667E-3,5C000400,-0724,0839,12041,031.5,045.6,0.215,748.7,01.17,0.508
2017-04-14 04:04:00,1727E-3,5C000400,-0724,0838,12104,031.6,045.6,0.214,748.7,01.17,0.508
2017-04-14 04:05:00,1731E-3,5C000400,-0724,0838,11988,031.6,045.6,0.214,748.7,01.17,0.508
2017-04-14 04:06:00,1571E-3,5C000400,-0724,0838,12005,031.6,045.6,0.214,748.7,01.17,0.508
2017-04-14 04:07:00,1725E-3,5C000400,-0724,0838,12059,031.7,045.6,0.214,748.6,01.17,0.508
2017-04-14 04:08:00,1658E-3,5C000400,-0724,0838,12045,031.7,045.6,0.214,748.6,01.17,0.508
2017-04-14 04:09:00,1617E-3,5C000400,-0724,0839,12039,031.8,045.6,0.214,748.6,01.17,0.508
2017-04-14 04:10:00,1746E-3,5C000400,-0724,0838,11986,031.8,045.6,0.214,748.6,01.17,0.508
2017-04-14 04:11:00,1748E-3,5C000400,-0724,0838,12049,031.9,045.6,0.213,748.6,01.17,0.508
2017-04-14 04:12:00,1584E-3,5C000400,-0724,0838,12014,031.9,045.6,0.213,748.6,01.17,0.508
2017-04-14 04:13:00,1627E-3,5C000400,-0724,0838,11959,032.0,045.6,0.214,748.6,01.17,0.508
2017-04-14 04:14:00,1599E-3,5C000400,-0724,0838,11937,032.0,045.6,0.214,748.5,01.17,0.508
2017-04-14 04:15:00,1641E-3,5C000400,-0724,0839,12139,032.0,045.6,0.214,748.5,01.17,0.508
2017-04-14 04:16:00,1554E-3,5C000400,-0724,0838,12061,032.0,045.6,0.213,748.5,01.17,0.508
2017-04-14 04:17:00,1682E-3,5C000400,-0724,0838,12105,031.9,045.6,0.213,748.5,01.17,0.508
2017-04-14 04:18:00,1632E-3,5C000400,-0724,0837,12079,031.8,045.6,0.213,748.6,01.17,0.508
2017-04-14 04:19:00,1645E-3,5C000400,-0724,0838,12030,031.6,045.6,0.213,748.6,01.17,0.508
2017-04-14 04:20:00,1640E-3,5C000400,-0724,0838,11974,031.5,045.6,0.213,748.6,01.17,0.508